EN

Hourly Weather Abdi

Today, 13 June, Sunday

Time Temperature Precipitation Wind Pressure Humidity
00:00 +13°C° 0.1 mm 3 mps 745 mmHg 98%
01:00 +14°C° 0 mm 2 mps 745 mmHg 98%
02:00 +14°C° 0 mm 2 mps 745 mmHg 98%
03:00 +13°C° 0 mm 2 mps 745 mmHg 98%
04:00 +15°C° 0 mm 2 mps 745 mmHg 95%
05:00 +16°C° 0 mm 2 mps 746 mmHg 93%
06:00 +17°C° 0 mm 3 mps 746 mmHg 91%
07:00 +18°C° 0.1 mm 3 mps 746 mmHg 86%
08:00 +20°C° 0.1 mm 4 mps 746 mmHg 82%
09:00 +21°C° 0.1 mm 4 mps 746 mmHg 77%
10:00 +22°C° 0.8 mm 4 mps 746 mmHg 72%
11:00 +23°C° 0.8 mm 5 mps 746 mmHg 67%
12:00 +25°C° 0.8 mm 5 mps 746 mmHg 62%
13:00 +25°C° 0.2 mm 5 mps 746 mmHg 64%
14:00 +25°C° 0.2 mm 5 mps 746 mmHg 66%
15:00 +25°C° 0.2 mm 5 mps 746 mmHg 67%
16:00 +23°C° 0.2 mm 4 mps 746 mmHg 71%
17:00 +23°C° 0.2 mm 4 mps 746 mmHg 75%
18:00 +22°C° 0.2 mm 4 mps 746 mmHg 78%
19:00 +21°C° 0.3 mm 3 mps 746 mmHg 82%
20:00 +19°C° 0.3 mm 3 mps 746 mmHg 86%
21:00 +18°C° 0.3 mm 3 mps 747 mmHg 90%
22:00 +18°C° 0.2 mm 3 mps 747 mmHg 91%
23:00 +17°C° 0.2 mm 3 mps 747 mmHg 92%

Tomorrow, 14 June, Monday

Time Temperature Precipitation Wind Pressure Humidity
00:00 +17°C° 0.2 mm 3 mps 747 mmHg 93%
01:00 +17°C° 0 mm 3 mps 747 mmHg 94%
02:00 +16°C° 0 mm 3 mps 747 mmHg 94%
03:00 +16°C° 0 mm 3 mps 747 mmHg 95%
04:00 +17°C° 0 mm 3 mps 747 mmHg 93%
05:00 +18°C° 0 mm 3 mps 748 mmHg 91%
06:00 +18°C° 0 mm 3 mps 748 mmHg 88%
07:00 +20°C° 0 mm 3 mps 748 mmHg 84%
08:00 +21°C° 0 mm 3 mps 748 mmHg 80%
09:00 +22°C° 0 mm 3 mps 748 mmHg 75%
10:00 +24°C° 0 mm 3 mps 748 mmHg 72%
11:00 +25°C° 0 mm 3 mps 748 mmHg 70%
12:00 +25°C° 0 mm 4 mps 748 mmHg 67%
13:00 +25°C° 0 mm 3 mps 748 mmHg 67%
14:00 +26°C° 0 mm 3 mps 749 mmHg 68%
15:00 +26°C° 0 mm 3 mps 749 mmHg 68%
16:00 +25°C° 0 mm 3 mps 748 mmHg 73%
17:00 +24°C° 0 mm 2 mps 748 mmHg 78%
18:00 +24°C° 0 mm 2 mps 748 mmHg 82%
19:00 +23°C° 0.2 mm 1 mps 748 mmHg 84%
20:00 +22°C° 0.2 mm 1 mps 748 mmHg 85%
21:00 +21°C° 0.2 mm 1 mps 748 mmHg 86%
22:00 +20°C° 0 mm 1 mps 748 mmHg 86%
23:00 +20°C° 0 mm 1 mps 748 mmHg 86%

Day after tomorrow, 15 June, Tuesday

Time Temperature Precipitation Wind Pressure Humidity
00:00 +20°C° 0 mm 1 mps 748 mmHg 86%
01:00 +19°C° 0.1 mm 1 mps 748 mmHg 86%
02:00 +19°C° 0.1 mm 1 mps 748 mmHg 87%
03:00 +19°C° 0.1 mm 1 mps 748 mmHg 87%
04:00 +20°C° 0 mm 1 mps 748 mmHg 85%
05:00 +21°C° 0 mm 1 mps 748 mmHg 84%
06:00 +22°C° 0 mm 1 mps 748 mmHg 82%
07:00 +23°C° 0 mm 2 mps 748 mmHg 78%
08:00 +24°C° 0 mm 2 mps 747 mmHg 75%
09:00 +25°C° 0 mm 2 mps 747 mmHg 71%
10:00 +26°C° 0.9 mm 2 mps 747 mmHg 70%
11:00 +26°C° 0.9 mm 2 mps 747 mmHg 69%
12:00 +26°C° 0.9 mm 2 mps 747 mmHg 68%
13:00 +26°C° 0.9 mm 2 mps 747 mmHg 70%
14:00 +26°C° 0.9 mm 1 mps 746 mmHg 73%
15:00 +25°C° 0.9 mm 1 mps 746 mmHg 75%
16:00 +24°C° 0.5 mm 1 mps 746 mmHg 79%
17:00 +23°C° 0.5 mm 2 mps 746 mmHg 83%
18:00 +21°C° 0.5 mm 2 mps 746 mmHg 87%
19:00 +20°C° 0.5 mm 2 mps 746 mmHg 88%
20:00 +19°C° 0.5 mm 2 mps 746 mmHg 90%
21:00 +20°C° 0.5 mm 1 mps 746 mmHg 92%
22:00 +18°C° 0.3 mm 2 mps 746 mmHg 92%
23:00 +18°C° 0.3 mm 2 mps 746 mmHg 93%

16 June, Wednesday

Time Temperature Precipitation Wind Pressure Humidity
00:00 +18°C° 0.3 mm 2 mps 746 mmHg 94%
01:00 +18°C° 0.1 mm 2 mps 746 mmHg 91%
02:00 +20°C° 0.1 mm 1 mps 746 mmHg 88%
03:00 +20°C° 0.1 mm 1 mps 746 mmHg 85%
04:00 +20°C° 0 mm 1 mps 746 mmHg 85%
05:00 +19°C° 0 mm 2 mps 746 mmHg 85%
06:00 +19°C° 0 mm 2 mps 746 mmHg 85%
07:00 +21°C° 0 mm 2 mps 746 mmHg 81%
08:00 +23°C° 0 mm 2 mps 745 mmHg 77%
09:00 +25°C° 0 mm 3 mps 745 mmHg 72%
10:00 +26°C° 0 mm 3 mps 745 mmHg 68%
11:00 +27°C° 0 mm 4 mps 745 mmHg 63%
12:00 +28°C° 0 mm 5 mps 744 mmHg 58%
13:00 +28°C° 0 mm 5 mps 744 mmHg 60%
14:00 +28°C° 0 mm 4 mps 744 mmHg 62%
15:00 +29°C° 0 mm 4 mps 744 mmHg 64%
16:00 +28°C° 0.3 mm 4 mps 743 mmHg 68%
17:00 +27°C° 0.3 mm 3 mps 743 mmHg 73%
18:00 +26°C° 0.3 mm 3 mps 743 mmHg 78%
19:00 +25°C° 0 mm 3 mps 743 mmHg 81%
20:00 +23°C° 0 mm 2 mps 742 mmHg 83%
21:00 +21°C° 0 mm 2 mps 742 mmHg 86%
22:00 +21°C° 0.3 mm 1 mps 742 mmHg 88%
23:00 +21°C° 0.3 mm 1 mps 742 mmHg 89%

17 June, Thursday

Time Temperature Precipitation Wind Pressure Humidity
00:00 +20°C° 0.3 mm 1 mps 742 mmHg 90%
01:00 +20°C° 0.1 mm 1 mps 742 mmHg 91%
02:00 +18°C° 0.1 mm 2 mps 742 mmHg 92%
03:00 +18°C° 0.1 mm 2 mps 742 mmHg 92%
04:00 +18°C° 0 mm 3 mps 742 mmHg 93%
05:00 +19°C° 0 mm 4 mps 743 mmHg 93%
06:00 +19°C° 0 mm 5 mps 743 mmHg 93%
07:00 +19°C° 0.1 mm 6 mps 743 mmHg 89%
08:00 +20°C° 0.1 mm 6 mps 744 mmHg 86%
09:00 +20°C° 0.1 mm 7 mps 744 mmHg 82%
10:00 +21°C° 0 mm 7 mps 745 mmHg 75%
11:00 +22°C° 0 mm 7 mps 745 mmHg 67%
12:00 +23°C° 0 mm 7 mps 746 mmHg 60%
13:00 +23°C° 0 mm 7 mps 746 mmHg 60%
14:00 +23°C° 0 mm 7 mps 747 mmHg 60%
15:00 +23°C° 0 mm 7 mps 747 mmHg 60%
16:00 +22°C° 0 mm 6 mps 747 mmHg 61%
17:00 +21°C° 0 mm 6 mps 748 mmHg 62%
18:00 +20°C° 0 mm 5 mps 749 mmHg 63%
19:00 +18°C° 0 mm 4 mps 749 mmHg 67%
20:00 +17°C° 0 mm 4 mps 749 mmHg 70%
21:00 +14°C° 0 mm 3 mps 750 mmHg 74%
22:00 +14°C° 0 mm 3 mps 750 mmHg 74%
23:00 +13°C° 0 mm 3 mps 751 mmHg 74%

18 June, Friday

Time Temperature Precipitation Wind Pressure Humidity
00:00 +13°C° 0 mm 3 mps 751 mmHg 74%
01:00 +12°C° 0 mm 3 mps 751 mmHg 76%
02:00 +11°C° 0 mm 3 mps 751 mmHg 78%
03:00 +11°C° 0 mm 3 mps 752 mmHg 79%
04:00 +12°C° 0 mm 3 mps 752 mmHg 77%
05:00 +13°C° 0 mm 4 mps 753 mmHg 75%
06:00 +14°C° 0 mm 4 mps 753 mmHg 73%
07:00 +17°C° 0 mm 4 mps 753 mmHg 68%
08:00 +18°C° 0 mm 4 mps 753 mmHg 62%
09:00 +19°C° 0 mm 4 mps 753 mmHg 57%
10:00 +20°C° 0 mm 4 mps 753 mmHg 55%
11:00 +21°C° 0 mm 4 mps 753 mmHg 53%
12:00 +22°C° 0 mm 4 mps 753 mmHg 51%
13:00 +22°C° 0 mm 3 mps 753 mmHg 51%
14:00 +22°C° 0 mm 3 mps 753 mmHg 51%
15:00 +22°C° 0 mm 3 mps 753 mmHg 50%
16:00 +22°C° 0 mm 3 mps 753 mmHg 56%
17:00 +23°C° 0 mm 2 mps 753 mmHg 62%
18:00 +21°C° 0 mm 2 mps 753 mmHg 67%
19:00 +20°C° 0 mm 2 mps 753 mmHg 69%
20:00 +19°C° 0 mm 1 mps 753 mmHg 70%
21:00 +16°C° 0 mm 1 mps 753 mmHg 72%
22:00 +16°C° 0 mm 1 mps 753 mmHg 73%
23:00 +15°C° 0 mm 2 mps 753 mmHg 74%
Show more